This demonstration page uses our WeatherBlox Daily Observations layout. Learn more.

Left ArrowRight Arrow

40.92945, -100.16068

Hourly Observations for August 21, 2020

Temp ( °F °C ) Dew Point ( °F °C ) Humidity (%) Winds ( mph kmh ) Pressure ( in mb ) Visibility ( mi km ) Precip ( " mm )
12:15 am 00:15 Clear 75 23.9 61 16.3 63 63 S 9 15 29.74 1007 10 16.0934 0 0
12:35 am 00:35 Clear 75 24 61 16.1 61 61 S 9 15 29.75 1007 10 16.0934 0 0
12:55 am 00:55 Clear 74 23.5 61 16.2 64 64 S 8 13 29.74 1007 10 16.0934 0 0
1:15 am 01:15 Clear 74 23.3 61 16.1 64 64 S 8 13 29.74 1007 10 16.0934 0 0
1:35 am 01:35 Clear 74 23.3 61 16 64 64 S 12 19 29.73 1007 10 16.0934 0 0
1:55 am 01:55 Clear 74 23.4 61 16 63 63 SSW 10 17 29.73 1007 10 16.0934 0 0
2:15 am 02:15 Clear 74 23.3 60 15.8 63 63 S 12 19 29.73 1007 10 16.0934 0 0
2:35 am 02:35 Clear 74 23.4 60 15.8 62 62 S 12 19 29.73 1007 10 16.0934 0 0
2:55 am 02:55 Clear 74 23.3 60 15.8 63 63 S 12 19 29.73 1007 10 16.0934 0 0
3:15 am 03:15 Clear 74 23.1 60 15.7 63 63 S 9 15 29.73 1007 10 16.0934 0 0
3:35 am 03:35 Clear 73 22.7 60 15.7 65 65 S 9 15 29.73 1007 10 16.0934 0 0
3:55 am 03:55 Clear 72 22.3 60 15.8 67 67 S 9 15 29.72 1007 10 16.0934 0 0
4:15 am 04:15 Clear 71 21.7 60 15.8 69 69 SSE 9 15 29.74 1007 10 16.0934 0 0
4:35 am 04:35 Clear 71 21.7 60 15.7 69 69 SSE 9 15 29.74 1007 10 16.0934 0 0
4:55 am 04:55 Clear 71 21.5 60 15.8 70 70 SSE 8 13 29.74 1007 10 16.0934 0 0
5:15 am 05:15 Clear 70 21.2 60 15.7 71 71 SSE 9 15 29.74 1007 10 16.0934 0 0
5:35 am 05:35 Clear 70 21.1 60 15.6 71 71 SSE 9 15 29.74 1007 10 16.0934 0 0
5:55 am 05:55 Clear 69 20.8 60 15.6 72 72 SE 9 15 29.75 1007 10 16.0934 0 0
6:15 am 06:15 Clear 69 20.3 60 15.6 75 75 SSE 9 15 29.75 1007 10 16.0934 0 0
6:35 am 06:35 Clear 68 20.2 60 15.6 75 75 SE 7 11 29.75 1007 10 16.0934 0 0
6:55 am 06:55 Clear 68 20.1 60 15.5 75 75 SE 6 9 29.76 1008 10 16.0934 0 0
7:15 am 07:15 Sunny 68 19.9 60 15.5 76 76 SSE 7 11 29.76 1008 10 16.0934 0 0
7:35 am 07:35 Sunny 67 19.5 60 15.6 78 78 SE 3 6 29.78 1008 10 16.0934 0 0
7:55 am 07:55 Sunny 69 20.5 60 15.6 74 74 SSE 5 7 29.77 1008 10 16.0934 0 0
8:15 am 08:15 Sunny 70 20.9 60 15.7 72 72 S 7 11 29.75 1008 10 16.0934 0 0
8:35 am 08:35 Sunny 71 21.7 61 16 70 70 S 6 9 29.76 1008 10 16.0934 0 0
8:55 am 08:55 Sunny 73 22.5 61 16.1 67 67 S 8 13 29.76 1008 10 16.0934 0 0
9:15 am 09:15 Sunny 74 23.2 61 16 64 64 S 9 15 29.76 1008 10 16.0934 0 0
9:35 am 09:35 Sunny 74 23.6 61 16.3 64 64 SSW 7 11 29.76 1008 10 16.0934 0 0
9:55 am 09:55 Sunny 75 24.1 62 16.5 63 63 S 6 9 29.76 1008 10 16.0934 0 0
10:15 am 10:15 Sunny 77 25 62 16.6 60 60 SSW 6 9 29.75 1007 10 16.0934 0 0
10:35 am 10:35 Sunny 78 25.8 62 16.5 57 57 S 7 11 29.74 1007 10 16.0934 0 0
10:55 am 10:55 Sunny 80 26.5 62 16.6 55 55 SSE 3 6 29.74 1007 10 16.0934 0 0
11:15 am 11:15 Sunny 81 27.4 62 16.6 52 52 S 7 11 29.72 1006 10 16.0934 0 0
11:35 am 11:35 Sunny 82 28 62 16.9 51 51 SE 7 11 29.72 1006 10 16.0934 0 0
11:55 am 11:55 Sunny 84 29 62 16.6 47 47 S 7 11 29.72 1006 10 16.0934 0 0
12:15 pm 12:15 Sunny 85 29.4 61 16.3 45 45 S 7 11 29.71 1006 10 16.0934 0 0
12:35 pm 12:35 Sunny 86 30 63 17.1 46 46 S 9 15 29.71 1006 10 16.0934 0 0
12:55 pm 12:55 Sunny 87 30.3 64 17.6 47 47 SE 6 9 29.71 1006 10 16.0934 0 0
1:15 pm 13:15 Sunny 88 31.2 62 16.7 42 42 SSE 8 13 29.69 1005 10 16.0934 0 0
1:35 pm 13:35 Sunny 88 31.1 64 17.7 45 45 SE 7 11 29.68 1005 10 16.0934 0 0
1:55 pm 13:55 Sunny 88 31.3 64 17.9 45 45 SSE 8 13 29.69 1005 10 16.0934 0 0
2:15 pm 14:15 Sunny 89 31.6 64 17.8 44 44 SSE 12 19 29.68 1005 10 16.0934 0 0
2:35 pm 14:35 Sunny 89 31.6 64 17.7 43 43 SSE 10 17 29.69 1005 10 16.0934 0 0
2:55 pm 14:55 Sunny 90 32 65 18.1 44 44 SSE 9 15 29.68 1005 10 16.0934 0 0
3:15 pm 15:15 Sunny 90 32 64 17.8 43 43 SSE 12 19 29.67 1005 10 16.0934 0 0
3:35 pm 15:35 Sunny 91 32.6 63 17.4 40 40 SSE 10 17 29.68 1005 10 16.0934 0 0
3:55 pm 15:55 Sunny 91 32.9 62 16.9 38 38 SE 10 17 29.68 1005 10 16.0934 0 0
4:15 pm 16:15 Sunny 91 32.9 62 16.6 38 38 SSE 10 17 29.67 1005 10 16.0934 0 0
4:35 pm 16:35 Sunny 91 32.7 61 16.1 37 37 SSE 9 15 29.67 1005 10 16.0934 0 0
4:55 pm 16:55 Sunny 91 32.9 63 17.3 39 39 ESE 12 19 29.67 1005 10 16.0934 0 0
5:15 pm 17:15 Sunny 90 32.4 64 17.5 41 41 SSE 12 19 29.67 1005 10 16.0934 0 0
5:35 pm 17:35 Sunny 91 32.6 64 17.5 41 41 SE 13 20 29.67 1005 10 16.0934 0 0
5:55 pm 17:55 Sunny 90 32.4 64 17.7 41 41 SE 12 19 29.67 1005 10 16.0934 0 0
6:15 pm 18:15 Sunny 90 32 63 17.4 42 42 SSE 10 17 29.68 1005 10 16.0934 0 0
6:35 pm 18:35 Sunny 89 31.6 63 17.4 43 43 SSE 10 17 29.68 1005 10 16.0934 0 0
6:55 pm 18:55 Sunny 88 31 64 18 46 46 SSE 9 15 29.68 1005 10 16.0934 0 0
7:15 pm 19:15 Sunny 87 30.6 64 17.7 46 46 SE 9 15 29.7 1006 10 16.0934 0 0
7:35 pm 19:35 Sunny 86 30 64 17.9 48 48 SE 7 11 29.7 1006 10 16.0934 0 0
7:55 pm 19:55 Sunny 85 29.2 64 18 51 51 SSE 7 11 29.71 1006 10 16.0934 0 0
8:15 pm 20:15 Sunny 82 27.8 65 18.2 56 56 SSE 6 9 29.72 1006 10 16.0934 0 0
8:35 pm 20:35 Clear 79 26.1 65 18.3 62 62 SSE 5 7 29.73 1007 10 16.0934 0 0
8:55 pm 20:55 Clear 79 26.2 65 18.2 61 61 SSE 6 9 29.74 1007 10 16.0934 0 0
9:15 pm 21:15 Clear 78 25.6 65 18.1 63 63 SSE 5 7 29.76 1008 10 16.0934 0 0
9:35 pm 21:35 Clear 78 25.3 65 18.3 65 65 SE 7 11 29.76 1008 10 16.0934 0 0
9:55 pm 21:55 Clear 77 25.1 65 18.4 66 66 SSE 6 9 29.77 1008 10 16.0934 0 0
10:15 pm 22:15 Clear 75 24 65 18.2 70 70 SSE 7 11 29.78 1008 10 16.0934 0 0
10:35 pm 22:35 Clear 73 23 64 18 74 74 SSE 6 9 29.79 1009 10 16.0934 0 0
10:55 pm 22:55 Clear 72 22.2 64 17.7 76 76 S 6 9 29.8 1009 10 16.0934 0 0
11:15 pm 23:15 Clear 73 22.7 64 18 75 75 SSE 7 11 29.8 1009 10 16.0934 0 0
11:35 pm 23:35 Clear 73 22.5 64 18 76 76 SSE 7 11 29.8 1009 10 16.0934 0 0
11:55 pm 23:55 Clear 72 22.1 64 18 78 78 S 6 9 29.8 1009 10 16.0934 0 0

Powered by AerisWeather